This is the latest recevied weather packets stored in our database for station/object DB0OHL. If no packets are shown the sender has not sent any weather packets the latest 10 day(s).
| Time | Temp. | Humidity | Pressure | Rain* | Wind** | Luminosity | Snow |
|---|---|---|---|---|---|---|---|
| 1777961737 | 11.67° C | 99% | 1009.8 hPa | 3.05 mm | - | - | - |
| 1777961135 | 11.67° C | 99% | 1009.7 hPa | 3.81 mm | - | - | - |
| 1777960532 | 12.22° C | 99% | 1009.8 hPa | 4.83 mm | - | - | - |
| 1777959930 | 12.22° C | 99% | 1009.7 hPa | 4.83 mm | - | - | - |
| 1777959327 | 12.22° C | 99% | 1009.7 hPa | 4.57 mm | - | - | - |
| 1777958725 | 12.22° C | 99% | 1009.6 hPa | 4.83 mm | - | - | - |
| 1777958122 | 12.22° C | 99% | 1009.5 hPa | 4.32 mm | - | - | - |
| 1777957520 | 12.22° C | 99% | 1009.7 hPa | 3.05 mm | - | - | - |
| 1777956917 | 12.78° C | 99% | 1009.6 hPa | 2.03 mm | - | - | - |
| 1777956375 | 12.22° C | 99% | 1009.7 hPa | 1.27 mm | - | - | - |
| 1777955772 | 12.22° C | 99% | 1009.7 hPa | 1.02 mm | - | - | - |
| 1777955170 | 12.22° C | 99% | 1009.7 hPa | 0.51 mm | - | - | - |
| 1777954567 | 12.22° C | 99% | 1009.6 hPa | 0.51 mm | - | - | - |
| 1777953965 | 12.22° C | 99% | 1009.7 hPa | 0.51 mm | - | - | - |
| 1777953362 | 12.22° C | 99% | 1009.7 hPa | 0.25 mm | - | - | - |
| 1777952760 | 12.22° C | 99% | 1009.8 hPa | 0.25 mm | - | - | - |
| 1777952157 | 12.22° C | 98% | 1009.9 hPa | 0.25 mm | - | - | - |
| 1777951554 | 12.78° C | 98% | 1010 hPa | 0.25 mm | - | - | - |
| 1777950952 | 13.33° C | 96% | 1010 hPa | 0.25 mm | - | - | - |
| 1777950349 | 13.33° C | 93% | 1010.1 hPa | 0 mm | - | - | - |
| 1777949747 | 13.33° C | 93% | 1010.1 hPa | 0 mm | - | - | - |
| 1777949144 | 13.33° C | 93% | 1010.1 hPa | 0 mm | - | - | - |
| 1777948542 | 13.33° C | 94% | 1010.1 hPa | 0 mm | - | - | - |
| 1777947939 | 13.33° C | 94% | 1010 hPa | 0 mm | - | - | - |
| 1777947337 | 13.33° C | 94% | 1010.2 hPa | 0 mm | - | - | - |
* Rain latest hour (hover to see other rain measurements)
** Current wind speed in m/s (hover to see current wind gust speed)